Location: Dumpton Point
(51.3500°N, 1.4433°E)
Time: 16:52:10
(UTC+00:00)

Cosmos 1934 Rocket - Pass Details

Date: 09 April 2020
Orbit: 937 x 1000 km, 83.0° (Epoch: 03 June)

Event Time Altitude Azimuth Distance (km) Brightness Sun altitude
Rises 22:01:33 0° 349° (NNW) 3,702 8.2 -25.8°
Reaches altitude 10° 22:04:06 10° 348° (NNW) 2,741 7.3 -26.0°
Maximum altitude 22:10:22 79° 264° (W) 991 3.9 -26.5°
Enters shadow 22:11:29 61° 195° (SSW) 1,089 3.9 -26.5°
